Wind_Speed
6 6 5 5 4 3 3 2 4 6 6 7 9 10 11 13 13 13 14 13 13 12 11 12 12 11 11 10 11 11 11 10 10 9 9 9 9 9 8 7 6 6 6 6
8 5 6 6 6 5 5 4 4 7 8 7 9 11 11 13 13 13 13 13 12 12 11 11 12 12 12 11 12 11 11 11 10 10 10 9 9 9 8 8 7 7 7 7
7 6 7 7 6 7 5 5 7 8 7 7 8 9 12 14 14 12 12 12 12 11 11 11 11 12 12 12 12 12 12 12 12 11 11 10 9 9 9 9 9 8 8 8
9 9 9 8 8 8 6 8 9 8 7 7 7 10 13 13 13 13 13 12 12 12 12 12 12 12 12 13 13 13 13 13 13 12 10 10 10 10 9 9 10 9 9 9
10 10 10 10 10 10 9 9 8 8 7 7 8 10 13 13 12 12 13 12 13 13 14 14 13 13 13 13 13 13 13 14 13 12 11 11 11 11 11 10 10 10 10 10
11 11 11 11 12 11 9 8 7 7 8 9 9 10 12 12 12 12 13 13 14 14 14 14 14 14 13 13 13 13 13 13 13 12 11 11 12 12 12 12 12 12 12 11
12 11 12 12 12 11 9 8 8 9 10 10 9 11 11 12 13 13 14 14 14 15 15 15 15 14 13 13 13 13 13 13 13 13 12 12 13 13 13 13 14 14 13 12
11 10 12 13 12 11 10 9 9 10 9 9 9 10 13 14 15 14 14 14 15 15 15 15 15 14 14 14 14 14 13 13 13 13 13 13 14 14 15 15 15 15 13 13
13 13 14 14 14 13 11 10 9 10 9 10 11 10 14 15 15 16 15 14 15 15 15 16 16 16 15 14 14 14 13 14 14 14 15 15 16 16 16 17 16 15 15 15
15 14 14 14 14 14 12 11 10 10 12 11 10 13 15 16 17 17 16 16 16 15 15 16 16 16 16 15 15 14 14 14 15 16 16 16 17 17 17 17 17 17 17 16
16 16 14 14 14 14 13 11 11 12 12 12 13 15 16 17 16 17 18 17 17 17 16 16 16 16 16 16 15 15 15 15 15 16 16 17 17 18 17 17 17 17 18 18
16 16 16 14 14 14 13 12 12 14 14 13 13 14 16 15 16 17 17 17 18 18 16 16 17 17 17 17 17 16 16 16 16 16 17 18 18 18 18 18 18 18 18 18
18 16 16 15 15 14 14 13 13 13 14 15 15 17 17 16 17 18 17 18 18 17 17 17 17 18 17 17 17 17 16 17 17 17 18 19 19 19 19 19 19 19 19 19
21 19 18 17 16 17 17 15 14 13 14 16 17 17 18 17 17 17 18 19 19 18 19 18 18 18 18 18 18 18 18 18 19 19 20 21 21 21 20 20 20 20 20 20
22 21 20 18 18 17 17 16 15 16 16 17 18 18 18 17 19 20 20 21 20 20 20 20 20 20 19 19 19 20 20 20 21 21 21 22 21 21 22 22 21 22 22 22
23 22 21 19 17 18 18 17 17 17 16 17 18 21 21 21 22 23 23 22 22 21 21 21 20 20 21 21 21 21 22 22 22 22 23 23 22 22 22 23 23 23 24 23
24 23 22 19 17 18 18 17 19 18 18 18 19 21 23 23 23 22 23 23 23 23 23 23 22 22 22 22 22 22 23 23 24 24 25 25 25 25 25 25 25 26 26 25
23 23 22 19 19 19 19 19 19 19 19 20 21 23 25 26 25 24 24 24 24 24 24 24 23 23 23 24 24 24 25 25 25 25 26 26 26 26 26 26 26 26 26 27
23 23 22 20 19 19 19 18 18 21 21 21 21 23 27 27 26 24 25 24 24 25 25 25 25 25 25 25 26 26 26 25 25 25 26 26 26 26 27 27 27 27 27 28
22 22 22 21 19 20 21 20 20 21 22 22 22 24 26 27 27 25 25 25 25 26 26 26 26 26 27 26 26 27 26 26 26 26 26 26 26 26 26 27 27 28 28 28
22 23 23 21 20 21 22 22 22 21 23 23 23 25 25 25 27 26 26 26 26 26 26 27 27 27 27 27 27 27 26 26 26 26 26 26 26 26 26 26 26 27 28 28
24 23 23 23 23 23 22 23 22 23 24 24 24 25 25 26 26 26 27 27 27 27 27 28 28 28 28 28 27 28 27 27 27 27 27 26 26 26 25 26 27 28 28 29
24 23 24 25 26 26 24 24 26 25 25 25 25 26 26 26 26 26 26 26 26 27 27 28 28 28 28 28 28 28 27 27 27 28 27 26 26 26 26 27 28 28 28 28
25 25 25 26 29 28 28 28 27 26 25 25 26 27 26 26 26 26 27 27 27 27 27 27 28 28 27 28 28 28 28 27 27 27 26 26 27 27 27 28 29 29 29 29
25 26 26 27 27 28 28 28 27 26 25 25 26 27 26 26 26 26 26 26 27 27 27 28 28 27 28 28 28 28 29 28 27 27 27 28 28 29 29 29 30 30 28 28
24 26 27 27 27 27 26 26 26 26 26 26 26 26 26 27 26 25 26 27 27 28 28 28 28 28 28 28 28 29 29 29 29 29 29 29 30 30 30 30 30 30 29 28
Wind_Direction
213 224 235 252 262 294 294 279 288 293 305 313 322 330 327 335 338 341 345 347 350 356 359 359 358 359 359 358 357 356 356 358 357 355 355 357 357 354 349 343 341 333 327 323
219 230 238 241 250 264 268 266 284 298 304 310 317 321 320 329 334 337 340 342 345 349 353 354 354 350 352 352 349 349 350 349 348 345 343 349 349 346 346 341 332 325 320 321
227 233 243 248 255 259 254 269 276 287 290 309 313 312 313 320 327 332 336 338 341 344 347 348 346 347 345 346 345 345 345 345 343 340 339 341 343 342 340 337 334 324 319 319
238 237 247 246 245 255 257 265 269 280 291 296 301 297 297 307 318 329 333 333 334 336 338 339 336 339 342 343 343 341 342 342 339 338 337 336 338 338 335 332 332 326 318 318
232 238 243 244 243 247 246 255 272 281 280 269 278 280 296 295 308 322 329 328 327 330 330 331 335 334 334 336 339 339 338 338 337 336 333 330 332 332 333 328 325 320 313 313
235 241 245 243 243 244 246 262 280 287 284 272 285 283 287 296 309 313 319 321 324 322 323 321 325 327 330 331 332 334 335 335 334 332 331 330 327 326 329 328 324 322 314 309
239 243 248 245 249 248 250 264 274 282 287 292 294 285 287 294 305 309 311 315 318 318 319 318 321 324 325 324 326 329 330 331 330 329 327 325 323 321 320 321 320 320 314 309
238 248 246 250 251 251 248 254 269 276 283 297 290 285 291 296 301 306 307 311 315 317 316 317 320 322 321 318 320 322 324 325 324 324 323 320 319 318 316 316 315 314 313 310
228 236 243 250 254 252 247 246 262 275 274 279 286 284 292 297 302 303 303 307 311 311 310 313 315 316 316 315 315 317 317 318 318 316 316 314 312 312 313 313 312 311 311 309
231 236 239 244 251 255 255 253 258 267 278 278 278 284 288 293 298 303 304 308 308 307 306 311 313 312 313 313 312 312 312 311 312 312 311 310 311 310 310 310 309 309 308 307
236 239 243 242 246 247 257 259 254 257 260 274 277 281 289 295 301 304 305 306 307 308 305 307 310 311 311 311 310 308 308 308 308 309 309 309 309 311 310 308 308 309 307 304
238 237 245 247 255 256 254 255 258 268 270 269 273 280 284 291 293 297 300 304 306 309 305 307 309 312 312 312 310 308 306 305 304 306 308 307 306 305 306 306 305 306 308 306
242 238 242 249 252 251 250 248 249 259 267 271 272 278 280 286 291 293 296 300 304 306 304 305 306 309 310 310 309 306 304 305 304 303 305 306 304 302 302 302 303 303 305 306
239 236 238 245 248 250 255 253 252 251 259 269 271 273 278 283 288 291 294 300 302 303 304 304 305 307 308 307 305 303 303 302 302 301 302 302 302 301 301 301 301 302 303 304
239 239 238 241 248 254 259 258 259 256 253 258 270 274 269 276 285 291 296 300 302 303 303 304 304 305 303 302 302 302 301 302 301 300 301 303 302 301 300 300 300 300 301 302
241 242 239 242 245 252 252 254 254 258 259 261 266 272 270 272 280 289 292 294 297 299 300 301 301 301 301 300 300 301 300 300 300 300 301 301 301 301 301 300 300 300 300 300
243 244 243 243 245 250 251 250 250 255 258 261 263 267 273 274 278 286 289 291 293 295 297 299 300 299 298 299 300 300 300 300 301 301 300 300 299 299 299 299 299 299 300 300
245 243 243 244 245 249 252 254 256 256 259 258 260 266 271 275 281 284 286 289 292 294 296 297 296 296 296 297 297 298 298 299 300 302 301 298 297 296 297 298 298 298 298 299
245 246 243 242 246 251 255 257 260 264 262 261 263 265 273 278 280 282 285 288 289 292 294 294 294 294 295 295 295 296 296 296 297 298 299 298 298 297 296 296 297 297 297 299
242 245 245 242 243 250 252 253 255 260 263 262 264 268 273 277 281 282 284 286 288 290 292 294 295 295 295 294 293 294 295 295 296 296 297 297 297 297 297 296 296 296 296 298
244 244 244 242 243 250 254 254 252 255 261 265 267 270 274 277 281 284 285 285 288 290 291 292 295 296 295 294 294 294 294 294 295 296 297 297 296 295 295 296 297 298 299 299
245 246 246 243 242 245 252 256 255 259 263 266 268 272 274 277 281 284 285 287 288 289 289 291 292 294 295 294 292 293 294 294 295 295 295 296 296 295 295 295 296 297 298 297
244 242 241 241 245 248 254 259 261 264 265 267 269 271 274 275 278 280 284 286 287 288 288 290 292 292 293 293 292 292 294 295 295 294 293 294 294 294 295 296 296 297 297 297
243 240 242 244 246 251 255 260 264 266 267 268 269 272 274 276 277 280 284 286 287 288 289 290 293 293 293 292 291 292 293 294 295 295 296 296 296 295 295 295 296 296 297 297
245 246 245 247 250 254 256 260 265 268 269 270 271 272 274 277 280 283 286 288 288 287 289 291 293 293 293 292 292 292 293 294 295 297 297 297 297 297 296 296 296 297 299 299
243 247 247 248 251 255 259 263 266 268 270 272 272 272 274 278 281 283 285 287 287 288 289 291 292 293 294 294 294 293 292 293 294 295 296 297 296 296 296 297 298 297 296 296
Height
5919 5921 5921 5922 5922 5923 5924 5925 5926 5926 5925 5924 5922 5921 5919 5917 5915 5913 5911 5909 5907 5906 5904 5903 5901 5899 5898 5897 5895 5893 5892 5890 5889 5887 5886 5885 5884 5883 5882 5881 5880 5880 5879 5879
5919 5920 5921 5922 5923 5923 5924 5925 5926 5925 5924 5924 5922 5920 5918 5917 5915 5913 5911 5909 5907 5906 5904 5903 5901 5900 5898 5897 5895 5894 5892 5890 5888 5887 5886 5884 5883 5882 5882 5881 5880 5879 5879 5878
5918 5920 5920 5921 5922 5923 5923 5924 5925 5924 5923 5923 5923 5920 5917 5916 5915 5913 5911 5909 5907 5906 5904 5903 5901 5900 5898 5897 5895 5894 5892 5890 5888 5886 5885 5884 5883 5882 5882 5881 5880 5879 5878 5878
5917 5919 5919 5921 5922 5922 5923 5923 5923 5923 5922 5922 5922 5921 5916 5914 5913 5912 5910 5908 5907 5905 5904 5902 5901 5899 5898 5896 5895 5893 5891 5889 5888 5886 5885 5884 5883 5882 5881 5880 5879 5878 5877 5877
5915 5917 5918 5919 5920 5920 5921 5921 5921 5921 5920 5920 5920 5920 5917 5914 5912 5911 5910 5907 5905 5904 5903 5901 5899 5898 5897 5896 5894 5892 5891 5889 5887 5885 5884 5883 5882 5881 5880 5879 5878 5877 5876 5876
5913 5914 5916 5917 5918 5918 5919 5919 5919 5919 5919 5918 5919 5917 5915 5912 5912 5910 5909 5907 5905 5903 5902 5900 5898 5897 5896 5894 5893 5891 5890 5888 5886 5885 5883 5882 5881 5880 5879 5878 5877 5876 5875 5874
5911 5913 5914 5915 5916 5916 5917 5919 5919 5919 5917 5917 5917 5914 5912 5911 5910 5910 5908 5907 5904 5902 5900 5899 5897 5896 5894 5893 5891 5890 5888 5887 5885 5884 5882 5881 5880 5879 5878 5877 5875 5875 5873 5872
5910 5912 5912 5913 5914 5914 5915 5917 5918 5918 5917 5916 5915 5912 5911 5910 5909 5908 5907 5905 5903 5901 5899 5897 5895 5894 5892 5891 5889 5888 5887 5885 5884 5883 5881 5880 5879 5877 5876 5875 5874 5872 5871 5870
5907 5910 5910 5910 5911 5912 5913 5914 5915 5916 5915 5915 5913 5910 5908 5907 5906 5905 5904 5903 5901 5899 5896 5895 5894 5892 5890 5889 5887 5886 5885 5884 5882 5881 5880 5878 5877 5875 5874 5873 5871 5870 5869 5868
5904 5906 5907 5907 5908 5910 5910 5912 5913 5914 5913 5912 5911 5909 5907 5905 5904 5903 5902 5900 5899 5896 5894 5893 5891 5890 5888 5886 5885 5884 5882 5881 5880 5879 5878 5876 5874 5873 5872 5870 5869 5867 5866 5864
5901 5903 5904 5905 5906 5907 5909 5910 5910 5911 5911 5910 5909 5908 5904 5903 5901 5900 5898 5897 5895 5893 5891 5890 5889 5887 5886 5884 5882 5881 5880 5879 5877 5876 5875 5873 5872 5870 5869 5867 5866 5864 5862 5861
5897 5900 5901 5902 5903 5904 5905 5906 5908 5908 5907 5907 5906 5907 5901 5901 5899 5897 5895 5894 5893 5891 5888 5887 5886 5884 5883 5881 5879 5878 5877 5876 5874 5873 5871 5870 5869 5867 5866 5864 5862 5861 5859 5857
5893 5896 5898 5899 5902 5901 5902 5903 5904 5905 5905 5904 5903 5904 5898 5898 5896 5894 5893 5892 5890 5889 5886 5884 5883 5882 5880 5878 5877 5875 5874 5872 5871 5869 5868 5867 5865 5864 5862 5860 5858 5857 5855 5853
5889 5890 5894 5896 5896 5897 5897 5898 5899 5901 5901 5900 5900 5899 5895 5893 5892 5890 5888 5888 5888 5885 5884 5882 5880 5879 5877 5876 5874 5872 5871 5869 5868 5866 5865 5863 5861 5859 5857 5856 5854 5852 5851 5849
5883 5886 5888 5890 5891 5892 5893 5894 5895 5896 5896 5896 5894 5893 5891 5888 5888 5887 5886 5884 5883 5882 5880 5878 5877 5875 5874 5872 5871 5869 5867 5866 5864 5862 5861 5859 5857 5855 5853 5851 5849 5848 5846 5844
5878 5880 5882 5884 5886 5888 5889 5890 5891 5892 5892 5892 5891 5888 5885 5884 5885 5884 5883 5881 5879 5877 5876 5874 5873 5871 5870 5868 5866 5865 5863 5862 5860 5858 5856 5854 5852 5850 5848 5846 5844 5842 5840 5838
5873 5875 5877 5880 5882 5882 5884 5886 5886 5887 5887 5887 5886 5885 5881 5880 5881 5880 5878 5877 5875 5873 5872 5870 5869 5867 5865 5863 5862 5860 5858 5857 5855 5853 5851 5849 5847 5845 5843 5841 5839 5836 5834 5832
5868 5870 5872 5874 5877 5878 5881 5880 5880 5881 5881 5881 5880 5878 5876 5875 5875 5874 5873 5871 5870 5868 5867 5865 5864 5862 5860 5858 5856 5855 5853 5851 5849 5847 5845 5843 5841 5839 5837 5835 5832 5830 5828 5826
5863 5865 5867 5869 5871 5872 5875 5874 5874 5874 5874 5874 5874 5873 5870 5869 5869 5868 5867 5866 5864 5863 5861 5860 5858 5856 5855 5853 5851 5849 5847 5845 5843 5841 5839 5837 5835 5833 5830 5828 5826 5824 5821 5819
5858 5859 5862 5863 5865 5866 5868 5867 5867 5868 5868 5867 5867 5866 5865 5863 5863 5862 5861 5860 5859 5857 5856 5854 5852 5850 5848 5846 5845 5843 5841 5839 5837 5835 5833 5830 5828 5826 5824 5822 5819 5817 5815 5812
5851 5853 5855 5857 5859 5859 5859 5860 5861 5863 5862 5861 5860 5860 5859 5857 5857 5856 5854 5853 5852 5851 5849 5847 5846 5844 5842 5840 5838 5836 5834 5833 5831 5828 5826 5824 5821 5819 5817 5814 5812 5810 5808 5805
5846 5848 5850 5851 5852 5854 5852 5853 5854 5854 5855 5855 5854 5853 5853 5852 5851 5850 5848 5847 5846 5845 5843 5841 5839 5837 5835 5833 5831 5829 5827 5826 5823 5821 5819 5817 5814 5812 5809 5807 5805 5803 5800 5798
5839 5842 5842 5844 5846 5846 5846 5846 5846 5847 5848 5848 5848 5847 5847 5846 5845 5844 5842 5841 5839 5838 5836 5834 5832 5830 5828 5826 5824 5822 5820 5818 5816 5814 5812 5809 5807 5805 5803 5801 5798 5796 5793 5790
5832 5834 5836 5838 5838 5840 5840 5840 5841 5841 5842 5842 5841 5840 5840 5839 5838 5837 5836 5834 5833 5831 5829 5827 5825 5823 5821 5819 5817 5815 5813 5811 5809 5807 5804 5802 5800 5798 5796 5793 5791 5788 5786 5783
5826 5828 5829 5831 5833 5833 5834 5834 5835 5835 5835 5834 5834 5833 5833 5833 5832 5830 5829 5827 5826 5824 5822 5820 5818 5816 5814 5812 5810 5808 5806 5804 5802 5800 5797 5795 5793 5790 5788 5786 5783 5780 5777 5775
5820 5821 5823 5824 5826 5826 5827 5828 5828 5828 5828 5827 5827 5827 5826 5825 5825 5823 5822 5820 5819 5817 5815 5813 5811 5809 5807 5805 5803 5801 5799 5797 5794 5792 5790 5788 5785 5783 5781 5778 5775 5772 5770 5767